Location: Kiltepe
(36.4752°N, 30.0120°E)
Time: 09:50:18
(UTC+00:00)

Cosmos 2221 - Pass Details

Date: 03 August 2024
Orbit: 580 x 600 km, 82.5° (Epoch: 14 September)

Event Time Altitude Azimuth Distance (km) Brightness Sun altitude
Rises 19:58:32 0° 360° (N) 2,854 6.8 -28.4°
Reaches altitude 10° 20:00:50 10° 6° (N) 1,950 5.7 -28.7°
Enters shadow 20:02:56 26° 22° (NNE) 1,200 4.3 -28.9°
